[[{"header":{"parameterUnit":"m.s-1","parameterCategory":1,"la1":30.2991,"la2":30.254,"lo1":-89.0895,"lo2":-89.0444,"dy":0.0017,"dx":0.0017,"nx":28,"ny":28,"refTime":"2024-02-14T03:00:00:Z","depth":0,"parameterNumber":2,"parameterNumberName":"U-component_of_WINDS"},"data":[0,0,0,0,0,0,0,0,0,0,0,0,0,0,0,0,0,0,0,0,0,0,0,0,0,0,0,0,0,0,0,0,0,0,0,0,0,0,0,0,0,0,0,0,0,0,0,0,0,0,0,0,0,0,0,0,0,0,-1.4169,-1.417,0,-1.4252,-1.4253,-1.4254,-1.4245,-1.4244,-1.4243,-1.4241,-1.4327,-1.433,-1.4333,0,0,0,0,0,0,0,0,0,0,0,0,0,-1.4003,-1.4006,-1.4169,-1.417,-1.4171,-1.4252,-1.4253,-1.4254,-1.4245,-1.4244,-1.4242,-1.4241,-1.4325,-1.433,-1.4334,0,0,0,0,0,0,0,0,0,0,0,0,0,-1.408,-1.4007,-1.4168,-1.4176,-1.4178,-1.4251,-1.4253,-1.4254,-1.4246,-1.4244,-1.4242,-1.424,-1.4324,-1.4329,-1.4334,-1.4406,0,0,-1.435,-1.4352,0,0,0,0,0,0,0,0,-1.4075,-1.4086,-1.4174,-1.4176,-1.4178,-1.4236,-1.4226,-1.4305,-1.4246,-1.422,-1.4241,-1.4239,-1.4298,-1.4305,-1.4325,-1.4409,-1.4413,-1.4351,-1.4354,-1.4356,-1.4358,0,0,0,0,0,0,0,-1.407,-1.4082,-1.4201,-1.4175,-1.4178,-1.4176,-1.4184,-1.4241,-1.4269,-1.4222,-1.4222,-1.4232,-1.4299,-1.432,-1.4327,-1.4414,-1.4351,-1.4355,-1.4358,-1.436,-1.4562,-1.4564,0,0,0,0,0,0,-1.4063,-1.4078,-1.4199,-1.4204,-1.4121,-1.418,-1.419,-1.4219,-1.4268,-1.4274,-1.4233,-1.4231,-1.4312,-1.4321,-1.433,-1.4416,-1.4356,-1.4361,-1.4364,-1.4559,-1.4562,-1.4564,0,0,0,0,0,0,-1.4059,-1.4074,-1.4196,-1.4141,-1.4156,-1.4185,-1.4218,-1.4222,-1.4243,-1.4277,-1.4282,-1.425,-1.4311,-1.4323,-1.4387,-1.4419,-1.4363,-1.4368,-1.4557,-1.456,-1.4563,-1.459,0,0,0,0,0,0,-1.4054,-1.4072,-1.4099,-1.4141,-1.4159,-1.4251,-1.422,-1.4225,-1.4252,-1.425,-1.4294,-1.4299,-1.431,-1.4379,-1.4392,-1.4425,-1.4372,-1.4554,-1.4558,-1.4562,-1.4586,-1.4593,-1.46,0,0,0,0,0,-1.4049,-1.4104,-1.4101,-1.4116,-1.4194,-1.4253,-1.4263,-1.4275,-1.4255,-1.4283,-1.4304,-1.4298,-1.4414,-1.4386,-1.44,-1.4436,-1.4552,-1.4557,-1.4562,-1.4583,-1.4592,-1.46,0,0,0,0,0,0,-1.4064,-1.4109,-1.4107,-1.4177,-1.4211,-1.4251,-1.4286,-1.4284,-1.4324,-1.432,-1.4334,-1.4344,-1.4408,-1.4429,-1.4396,-1.4507,-1.448,-1.4488,-1.4491,-1.45,-1.4507,-1.45,-1.4376,0,0,0,0,0,-1.4076,-1.412,-1.4157,-1.4216,-1.4233,-1.4257,-1.4283,-1.4289,-1.4325,-1.4339,-1.4366,-1.4401,-1.4445,-1.4474,-1.4517,-1.4589,-1.4599,-1.4621,-1.4628,-1.4633,-1.464,-1.468,-1.469,-1.4581,-1.4581,-1.4581,0,0,-1.4101,-1.4131,-1.4158,-1.422,-1.4247,-1.4292,-1.4269,-1.4318,-1.4352,-1.4347,-1.4409,-1.4429,-1.447,-1.4538,-1.457,-1.4557,-1.4672,-1.464,-1.4644,-1.4648,-1.4686,-1.4696,-1.4705,-1.4584,-1.4583,-1.4583,0,0,-1.4168,-1.4196,-1.4247,-1.4275,-1.4317,-1.4332,-1.4345,-1.4386,-1.4399,-1.4462,-1.4459,-1.45,-1.4576,-1.4605,-1.4629,-1.4709,-1.4704,-1.4723,-1.4758,-1.4797,-1.4806,-1.4813,-1.4841,-1.4851,-1.4729,-1.4729,-1.473,0,-1.4193,-1.4262,-1.4274,-1.4324,-1.4351,-1.4349,-1.4402,-1.4428,-1.4482,-1.4501,-1.4486,-1.4582,-1.4609,-1.4684,-1.4703,-1.4724,-1.4738,-1.4717,-1.4803,-1.4811,-1.4819,-1.4845,-1.4856,-1.4731,-1.4731,-1.4731,-1.4731,0,-1.429,-1.4338,-1.4375,-1.4426,-1.4458,-1.4509,-1.4529,-1.456,-1.4564,-1.4581,-1.4645,-1.4677,-1.4726,-1.4745,-1.4749,-1.4821,-1.4812,-1.48,-1.4773,-1.4831,-1.4856,-1.4866,-1.4734,-1.4733,-1.4733,-1.4732,0,0,-1.4369,-1.4428,-1.4441,-1.4464,-1.4511,-1.4548,-1.4599,-1.4647,-1.4673,-1.471,-1.4753,-1.4818,-1.4808,-1.4836,-1.4844,-1.4878,-1.4938,-1.4862,-1.4863,-1.4874,-1.5019,-1.5026,-1.5038,-1.4936,-1.4938,-1.494,-1.5015,0,-1.444,-1.453,-1.4543,-1.4623,-1.4667,-1.4667,-1.4711,-1.4744,-1.4762,-1.4802,-1.4822,-1.4868,-1.4851,-1.4868,-1.4902,-1.4923,-1.4967,-1.4918,-1.4975,-1.4977,-1.4964,-1.5051,-1.5059,-1.5128,-1.5025,-1.5027,-1.5028,0,-1.4535,-1.4575,-1.4659,-1.47,-1.4719,-1.4758,-1.4804,-1.4843,-1.4881,-1.4891,-1.4923,-1.4927,-1.498,-1.4951,-1.5024,-1.4991,-1.5015,-1.503,-1.5033,-1.5038,-1.5005,-1.5057,-1.5151,-1.5161,-1.5044,-1.5042,-1.5041,0,-1.4583,-1.4658,-1.4718,-1.4738,-1.4788,-1.4815,-1.4837,-1.4873,-1.4902,-1.4942,-1.496,-1.5006,-1.5031,-1.5066,-1.5082,-1.506,-1.5154,-1.5127,-1.5164,-1.5164,-1.5183,-1.5181,-1.5281,-1.52,-1.52,-1.52,-1.52,0,-1.4661,-1.4712,-1.474,-1.4777,-1.4834,-1.4849,-1.4906,-1.4927,-1.4959,-1.5,-1.5003,-1.5041,-1.5061,-1.5102,-1.5115,-1.5173,-1.5185,-1.5194,-1.5197,-1.5194,-1.5192,-1.5209,-1.5204,-1.5203,-1.5202,-1.5202,-1.5201,0,-1.4723,-1.4744,-1.4809,-1.4851,-1.4863,-1.4903,-1.4939,-1.4974,-1.4993,-1.5044,-1.5057,-1.5086,-1.5134,-1.5154,-1.5214,-1.5223,-1.5289,-1.5289,-1.5276,-1.5277,-1.5312,-1.5308,-1.5425,-1.5441,-1.5351,-1.5352,-1.5353,0,-1.4771,-1.481,-1.4856,-1.4884,-1.4907,-1.4951,-1.498,-1.4997,-1.5027,-1.5074,-1.5104,-1.5153,-1.5193,-1.5271,-1.5296,-1.5342,-1.5342,-1.538,-1.5349,-1.5344,-1.5341,-1.5338,-1.5342,-1.5385,-1.5386,-1.5387,-1.5387,0,-1.4853,-1.4862,-1.4903,-1.4949,-1.4984,-1.5021,-1.5057,-1.5079,-1.5102,-1.5136,-1.5185,-1.5216,-1.5278,-1.5326,-1.5373,-1.5396,-1.5395,-1.5397,-1.5408,-1.5404,-1.5395,-1.5399,-1.5291,-1.5394,-1.5393,-1.5393,-1.5393,-1.5392,-1.4909,-1.4944,-1.4982,-1.5028,-1.5057,-1.5091,-1.5126,-1.5149,-1.5191,-1.5242,-1.525,-1.5303,-1.5341,-1.5405,-1.5429,-1.5471,-1.5461,-1.5477,-1.5481,-1.5484,-1.5486,-1.5389,-1.548,-1.548,-1.548,-1.548,-1.5479,0,-1.499,-1.5015,-1.5057,-1.5108,-1.5145,-1.5142,-1.5182,-1.5212,-1.5259,-1.5295,-1.5334,-1.5391,-1.5438,-1.5469,-1.5516,-1.5544,-1.5545,-1.5555,-1.5553,-1.5558,-1.5492,-1.5478,-1.5554,-1.5554,-1.5554,-1.5554,-1.5554,-1.5554,-1.5036,-1.5095,-1.5109,-1.5182,-1.5206,-1.5259,-1.5282,-1.5313,-1.5341,-1.5405,-1.5444,-1.5464,-1.5497,-1.5547,-1.559,-1.5597,-1.5614,-1.5626,-1.5632,-1.557,-1.5563,-1.5555,-1.5541,-1.5629,-1.563,-1.5694,-1.5695,-1.5695]},{"header":{"parameterUnit":"m.s-1","parameterCategory":1,"la1":30.2991,"la2":30.254,"lo1":-89.0895,"lo2":-89.0444,"dy":0.0017,"dx":0.0017,"nx":28,"ny":28,"refTime":"2024-02-14T03:00:00:Z","depth":0,"parameterNumber":3,"parameterNumberName":"V-component_of_WINDS"},"data":[0,0,0,0,0,0,0,0,0,0,0,0,0,0,0,0,0,0,0,0,0,0,0,0,0,0,0,0,0,0,0,0,0,0,0,0,0,0,0,0,0,0,0,0,0,0,0,0,0,0,0,0,0,0,0,0,0,0,-1.0505,-1.0505,0,-1.0468,-1.0468,-1.0467,-1.0427,-1.0426,-1.0425,-1.0425,-1.0387,-1.0386,-1.0386,0,0,0,0,0,0,0,0,0,0,0,0,0,-1.054,-1.054,-1.0505,-1.0505,-1.0504,-1.0468,-1.0468,-1.0467,-1.0427,-1.0426,-1.0425,-1.0425,-1.0387,-1.0386,-1.0386,0,0,0,0,0,0,0,0,0,0,0,0,0,-1.0516,-1.0539,-1.0505,-1.048,-1.0477,-1.0468,-1.0468,-1.0467,-1.0427,-1.0426,-1.0425,-1.0424,-1.0387,-1.0386,-1.0386,-1.0399,0,0,-1.0384,-1.0383,0,0,0,0,0,0,0,0,-1.0518,-1.0515,-1.0484,-1.0481,-1.0478,-1.0451,-1.0466,-1.0444,-1.0427,-1.0446,-1.0425,-1.0424,-1.0409,-1.0406,-1.0401,-1.0397,-1.0396,-1.0384,-1.0383,-1.0383,-1.0383,0,0,0,0,0,0,0,-1.0519,-1.0516,-1.0491,-1.0484,-1.048,-1.047,-1.0465,-1.0462,-1.0433,-1.0444,-1.0441,-1.0437,-1.0407,-1.0402,-1.04,-1.0395,-1.0384,-1.0383,-1.0383,-1.0382,-1.0399,-1.04,0,0,0,0,0,0,-1.0525,-1.0518,-1.0492,-1.0489,-1.0496,-1.047,-1.0465,-1.0461,-1.0433,-1.0428,-1.0438,-1.0436,-1.0404,-1.0401,-1.0399,-1.0412,-1.0383,-1.0382,-1.0382,-1.0398,-1.0399,-1.04,0,0,0,0,0,0,-1.0526,-1.0523,-1.0493,-1.0503,-1.0498,-1.047,-1.0466,-1.0461,-1.0455,-1.0428,-1.0423,-1.0438,-1.0403,-1.04,-1.0399,-1.041,-1.0382,-1.0381,-1.0397,-1.0398,-1.04,-1.0438,0,0,0,0,0,0,-1.0527,-1.0523,-1.0529,-1.0503,-1.0498,-1.0495,-1.0466,-1.046,-1.0454,-1.0451,-1.0427,-1.0422,-1.0402,-1.04,-1.0398,-1.0408,-1.0381,-1.0396,-1.0398,-1.0399,-1.0436,-1.0441,-1.0445,0,0,0,0,0,-1.0528,-1.0541,-1.0529,-1.0526,-1.0504,-1.0495,-1.0492,-1.0469,-1.0455,-1.046,-1.0442,-1.0423,-1.0409,-1.0401,-1.0398,-1.0408,-1.0395,-1.0397,-1.0399,-1.0434,-1.044,-1.0445,0,0,0,0,0,0,-1.0569,-1.0537,-1.0524,-1.0529,-1.0515,-1.0489,-1.0494,-1.0476,-1.0466,-1.0463,-1.0434,-1.0429,-1.0432,-1.042,-1.0411,-1.0419,-1.0399,-1.0401,-1.0427,-1.0432,-1.0436,-1.0439,-1.038,0,0,0,0,0,-1.0578,-1.0574,-1.0547,-1.0554,-1.0548,-1.0522,-1.0518,-1.0501,-1.0485,-1.0479,-1.0462,-1.0447,-1.044,-1.0435,-1.0427,-1.0434,-1.0428,-1.044,-1.0444,-1.0448,-1.0449,-1.0451,-1.0456,-1.0406,-1.0406,-1.0406,0,0,-1.0598,-1.058,-1.0579,-1.0562,-1.0549,-1.0545,-1.0517,-1.0515,-1.0512,-1.0479,-1.0477,-1.0464,-1.0446,-1.0449,-1.045,-1.0439,-1.0462,-1.045,-1.0454,-1.0453,-1.0454,-1.0459,-1.0463,-1.0408,-1.0408,-1.0407,0,0,-1.0631,-1.0618,-1.0622,-1.061,-1.0591,-1.0573,-1.0574,-1.055,-1.054,-1.0538,-1.0513,-1.0508,-1.0496,-1.0484,-1.0476,-1.0504,-1.0486,-1.0502,-1.0526,-1.0528,-1.0532,-1.0535,-1.0545,-1.0548,-1.0504,-1.0504,-1.0504,0,-1.0658,-1.0651,-1.0626,-1.0625,-1.0617,-1.0587,-1.0591,-1.058,-1.056,-1.0555,-1.0544,-1.0527,-1.0512,-1.0512,-1.0519,-1.0514,-1.0513,-1.0505,-1.0533,-1.0536,-1.0539,-1.0548,-1.0551,-1.0506,-1.0506,-1.0506,-1.0506,0,-1.0684,-1.068,-1.0686,-1.0666,-1.066,-1.0661,-1.0635,-1.0631,-1.0615,-1.0599,-1.0596,-1.0578,-1.0565,-1.0564,-1.0548,-1.0561,-1.0555,-1.0539,-1.0518,-1.0546,-1.0554,-1.0557,-1.0509,-1.0508,-1.0508,-1.0507,0,0,-1.0743,-1.0709,-1.0711,-1.0702,-1.0678,-1.0674,-1.0674,-1.0661,-1.0658,-1.0644,-1.0643,-1.0633,-1.0617,-1.0609,-1.0591,-1.0593,-1.0615,-1.0577,-1.0576,-1.0584,-1.0628,-1.064,-1.0644,-1.0603,-1.0603,-1.0604,-1.0629,0,-1.0772,-1.0769,-1.0746,-1.075,-1.0745,-1.0716,-1.0716,-1.0701,-1.0686,-1.0679,-1.0662,-1.0655,-1.0636,-1.063,-1.0631,-1.0613,-1.0624,-1.0611,-1.0601,-1.0601,-1.0606,-1.0648,-1.0661,-1.0685,-1.0632,-1.0632,-1.0633,0,-1.0805,-1.0794,-1.0797,-1.0773,-1.077,-1.077,-1.0756,-1.075,-1.0733,-1.0721,-1.0711,-1.0691,-1.0688,-1.0669,-1.0664,-1.0656,-1.065,-1.064,-1.0641,-1.0639,-1.0618,-1.0646,-1.0692,-1.0696,-1.0637,-1.0637,-1.0636,0,-1.0847,-1.0832,-1.0832,-1.0824,-1.0797,-1.0797,-1.0785,-1.0767,-1.076,-1.0748,-1.0743,-1.073,-1.0724,-1.0714,-1.0691,-1.0679,-1.0688,-1.0667,-1.0678,-1.0679,-1.0681,-1.0681,-1.0726,-1.0678,-1.0678,-1.0678,-1.0678,0,-1.0881,-1.0884,-1.085,-1.085,-1.0852,-1.0825,-1.0828,-1.0814,-1.0797,-1.0793,-1.0768,-1.0765,-1.0734,-1.0727,-1.0709,-1.0707,-1.0705,-1.0695,-1.069,-1.0697,-1.0698,-1.0693,-1.069,-1.0679,-1.0679,-1.0679,-1.0679,0,-1.0928,-1.0905,-1.0903,-1.0876,-1.087,-1.0872,-1.0849,-1.0848,-1.0831,-1.0826,-1.0823,-1.0796,-1.0787,-1.0763,-1.0747,-1.0735,-1.0738,-1.0729,-1.0744,-1.074,-1.0752,-1.0751,-1.0795,-1.0799,-1.0749,-1.075,-1.075,0,-1.0951,-1.0953,-1.0926,-1.0922,-1.0911,-1.0905,-1.0898,-1.0871,-1.0865,-1.0845,-1.0845,-1.0834,-1.0823,-1.0809,-1.0788,-1.0775,-1.0766,-1.0782,-1.0764,-1.077,-1.0765,-1.0765,-1.0765,-1.0786,-1.0787,-1.0787,-1.0788,0,-1.0995,-1.0984,-1.0975,-1.0962,-1.0954,-1.0942,-1.0929,-1.0927,-1.0897,-1.0891,-1.0881,-1.0873,-1.0857,-1.0845,-1.0829,-1.0816,-1.0797,-1.0794,-1.0795,-1.0802,-1.0811,-1.0806,-1.0754,-1.0793,-1.0792,-1.0792,-1.0792,-1.0791,-1.103,-1.103,-1.1011,-1.1002,-1.0989,-1.0978,-1.0975,-1.0957,-1.0948,-1.0933,-1.0918,-1.0909,-1.089,-1.0867,-1.0856,-1.0848,-1.0838,-1.0841,-1.0841,-1.0842,-1.0845,-1.0812,-1.0845,-1.0845,-1.0845,-1.0844,-1.0844,0,-1.1072,-1.1059,-1.105,-1.1033,-1.1025,-1.1008,-1.0992,-1.0987,-1.098,-1.0964,-1.0954,-1.0942,-1.0931,-1.0908,-1.0894,-1.0893,-1.0883,-1.089,-1.089,-1.0887,-1.0855,-1.0855,-1.0898,-1.0898,-1.0898,-1.0898,-1.0898,-1.0898,-1.1093,-1.1092,-1.1078,-1.107,-1.1056,-1.1047,-1.104,-1.1028,-1.1016,-1.1004,-1.0994,-1.0979,-1.0961,-1.0945,-1.0934,-1.0927,-1.0923,-1.0933,-1.0923,-1.0894,-1.0889,-1.0884,-1.0884,-1.0932,-1.0932,-1.0956,-1.0956,-1.0956]}]]